Find OPS 4467B

NORAD ID: 813 Int'l Des: 1964-031 Owner: NRO/SAFSP Country: US operational
LEOCIRCULARRETROGRADE

リアルタイム位置

3D地球を読み込み中...

OPS 4467Bについて

説明を読み込み中...

次回通過

Passes for default location (London). Set your location on the main map for personalized predictions.

高度履歴

Loading altitude history...

軌道要素

1 813U 64031B 26106.65827199 .00000017 00000-0 30886-4 0 9995
2 813 99.8187 252.3006 0005143 357.8933 2.2219 14.23702007206173
Epoch: Apr 16, 2026 • Age: 19 hours

現在のステータス

高度 819.1 km
速度 7.45 km/s
衛星直下点 51.55°N, 123.88°W
タイプ other

Most Searched